Date String (YYYY-MM-DD hh:mm:ss) UTC,Instrument flags,Ambient pressure (hPa),Sample flow (lpm),Bypass flow (lpm),Sample temperature (°C),Ambient temperature (°C),ASC tube jacket temperature (°C),LED temperature (°C),Box temperature (°C),Sample RH (%),Span deviation,Mass concentration (μg/m³),Mass concentration (μg/m³),Mass concentration (μg/m³)
DateTimeUTC,F1_M11,P_M11,Q1_M11,Q2_M11,T1_M11,T2_M11,T3_M11,T4_M11,T5_M11,U1_M11,ZSPAN_M11,X0_M11,X2_M11,X1_M11
2021-10-11 15:00:00,,0821.4,4.99,0.00,28.2,27.4,00.0,37.2,30.0,12.3,0000.0,0007.54,0003.04,0002.24
2021-10-11 15:01:00,,0821.4,4.98,0.00,28.2,27.4,00.0,37.2,30.1,12.4,0000.0,0007.46,0003.00,0002.24
2021-10-11 15:02:00,,0821.4,4.99,0.00,28.2,27.4,00.0,37.2,30.1,12.3,0000.0,0007.52,0003.03,0002.23
2021-10-11 15:03:00,,0821.4,5.02,0.00,28.2,27.4,00.0,37.2,30.1,12.3,0000.0,0007.45,0003.04,0002.23
2021-10-11 15:04:00,,0821.4,5.00,0.00,28.3,27.4,00.0,37.2,30.1,12.2,0000.0,0007.24,0003.04,0002.24
2021-10-11 15:05:00,,0821.3,5.00,0.00,28.3,27.4,00.0,37.3,30.1,12.1,0000.0,0007.34,0003.05,0002.24
2021-10-11 15:06:00,,0821.3,4.99,0.00,28.3,27.4,00.0,37.3,30.1,11.9,0000.0,0007.54,0003.09,0002.24
2021-10-11 15:07:00,,0821.3,5.00,0.00,28.3,27.4,00.0,37.3,30.1,12.0,0000.0,0007.80,0003.12,0002.24
2021-10-11 15:08:00,,0821.3,5.01,0.00,28.3,27.4,00.0,37.3,30.1,12.1,0000.0,0008.18,0003.12,0002.25
2021-10-11 15:09:00,,0821.3,5.00,0.00,28.3,27.5,00.0,37.3,30.2,12.1,0000.0,0007.85,0003.14,0002.26
2021-10-11 15:10:00,,0821.2,5.01,0.00,28.3,27.5,00.0,37.3,30.2,12.1,0000.0,0007.51,0003.15,0002.24
2021-10-11 15:11:00,,0821.2,4.99,0.00,28.4,27.5,00.0,37.3,30.2,12.0,0000.0,0007.98,0003.17,0002.23
2021-10-11 15:12:00,,0821.2,5.00,0.00,28.4,27.5,00.0,37.4,30.2,11.9,0000.0,0008.10,0003.21,0002.24
2021-10-11 15:13:00,,0821.2,5.00,0.00,28.4,27.5,00.0,37.4,30.2,12.0,0000.0,0008.41,0003.21,0002.25
2021-10-11 15:14:00,,0821.2,5.00,0.00,28.4,27.5,00.0,37.4,30.2,12.0,0000.0,0008.68,0003.20,0002.25
2021-10-11 15:15:00,,0821.2,4.99,0.00,28.4,27.5,00.0,37.4,30.2,12.0,0000.0,0008.72,0003.18,0002.23
2021-10-11 15:16:00,,0821.2,5.00,0.00,28.4,27.6,00.0,37.4,30.2,11.9,0000.0,0008.83,0003.14,0002.23
2021-10-11 15:17:00,,0821.2,5.00,0.00,28.4,27.6,00.0,37.4,30.3,11.9,0000.0,0008.76,0003.15,0002.23
2021-10-11 15:18:00,,0821.2,4.99,0.00,28.4,27.6,00.0,37.4,30.3,11.7,0000.0,0008.68,0003.18,0002.23
2021-10-11 15:19:00,,0821.2,4.99,0.00,28.5,27.6,00.0,37.4,30.3,11.6,0000.0,0008.78,0003.19,0002.22
2021-10-11 15:20:00,,0821.2,5.01,0.00,28.5,27.6,00.0,37.5,30.3,11.2,0000.0,0008.76,0003.17,0002.21
2021-10-11 15:21:00,,0821.1,5.00,0.00,28.5,27.6,00.0,37.5,30.3,11.3,0000.0,0009.44,0003.20,0002.20
2021-10-11 15:22:00,,0821.2,5.02,0.00,28.5,27.7,00.0,37.5,30.3,11.2,0000.0,0009.22,0003.20,0002.20
2021-10-11 15:23:00,,0821.2,5.00,0.00,28.5,27.7,00.0,37.5,30.4,11.1,0000.0,0009.31,0003.19,0002.19
2021-10-11 15:24:00,,0821.2,5.00,0.00,28.5,27.7,00.0,37.5,30.4,11.2,0000.0,0009.15,0003.18,0002.18
2021-10-11 15:25:00,,0821.2,5.02,0.00,28.6,27.7,00.0,37.5,30.4,11.0,0000.0,0009.45,0003.18,0002.16
2021-10-11 15:26:00,,0821.1,4.98,0.00,28.6,27.7,00.0,37.5,30.4,11.2,0000.0,0009.45,0003.19,0002.16
2021-10-11 15:27:00,,0821.2,5.00,0.00,28.6,27.7,00.0,37.6,30.4,10.8,0000.0,0009.33,0003.17,0002.15
2021-10-11 15:28:00,,0821.1,5.01,0.00,28.6,27.8,00.0,37.6,30.5,10.8,0000.0,0009.17,0003.11,0002.13
2021-10-11 15:29:00,,0821.2,4.99,0.00,28.6,27.8,00.0,37.6,30.5,10.8,0000.0,0009.19,0003.05,0002.13
2021-10-11 15:30:00,,0821.2,5.01,0.00,28.6,27.8,00.0,37.6,30.5,10.8,0000.0,0008.50,0002.98,0002.11
2021-10-11 15:31:00,,0821.2,5.00,0.00,28.7,27.8,00.0,37.6,30.5,10.7,0000.0,0009.19,0002.96,0002.10
2021-10-11 15:32:00,,0821.2,5.00,0.00,28.7,27.8,00.0,37.6,30.5,11.0,0000.0,0008.66,0002.87,0002.09
2021-10-11 15:33:00,,0821.2,4.99,0.00,28.7,27.8,00.0,37.7,30.6,11.2,0000.0,0008.92,0002.82,0002.08
2021-10-11 15:34:00,,0821.2,4.99,0.00,28.7,27.9,00.0,37.7,30.5,11.1,0000.0,0009.60,0002.82,0002.08
2021-10-11 15:35:00,,0821.2,5.01,0.00,28.7,27.9,00.0,37.7,30.6,11.0,0000.0,0010.15,0002.82,0002.09
2021-10-11 15:36:00,,0821.2,4.99,0.00,28.7,27.9,00.0,37.7,30.6,10.7,0000.0,0010.82,0002.93,0002.10
2021-10-11 15:37:00,,0821.1,5.00,0.00,28.8,27.9,00.0,37.7,30.6,10.9,0000.0,0010.89,0002.95,0002.10
2021-10-11 15:38:00,,0821.1,5.01,0.00,28.8,28.0,00.0,37.7,30.6,11.2,0000.0,0011.08,0002.96,0002.09
2021-10-11 15:39:00,,0821.1,4.99,0.00,28.8,28.0,00.0,37.7,30.6,11.1,0000.0,0011.22,0003.02,0002.10
2021-10-11 15:40:00,,0821.1,5.00,0.00,28.8,28.0,00.0,37.8,30.7,11.0,0000.0,0011.32,0002.97,0002.09
2021-10-11 15:41:00,,0821.1,5.00,0.00,28.8,28.0,00.0,37.8,30.7,10.8,0000.0,0011.29,0002.98,0002.08
2021-10-11 15:42:00,,0821.1,5.00,0.00,28.8,28.0,00.0,37.8,30.7,11.2,0000.0,0010.73,0003.07,0002.07
2021-10-11 15:43:00,,0821.1,5.00,0.00,28.8,28.0,00.0,37.8,30.7,11.2,0000.0,0010.76,0003.06,0002.08
2021-10-11 15:44:00,,0821.0,5.00,0.00,28.9,28.1,00.0,37.8,30.7,11.5,0000.0,0010.70,0003.11,0002.09
2021-10-11 15:45:00,,0821.0,5.00,0.00,28.9,28.1,00.0,37.8,30.7,11.5,0000.0,0009.84,0003.13,0002.10
2021-10-11 15:46:00,,0821.0,5.00,0.00,28.9,28.1,00.0,37.9,30.8,11.5,0000.0,0009.32,0003.13,0002.10
2021-10-11 15:47:00,,0821.1,5.00,0.00,28.9,28.1,00.0,37.9,30.8,11.4,0000.0,0008.70,0003.04,0002.11
2021-10-11 15:48:00,,0821.1,5.00,0.00,28.9,28.1,00.0,37.9,30.8,11.4,0000.0,0009.90,0003.01,0002.10
2021-10-11 15:49:00,,0821.1,5.00,0.00,28.9,28.1,00.0,37.9,30.8,11.5,0000.0,0009.70,0003.06,0002.12
2021-10-11 15:50:00,,0821.1,5.00,0.00,29.0,28.2,00.0,37.9,30.8,11.4,0000.0,0010.28,0003.06,0002.14
2021-10-11 15:51:00,,0821.1,5.00,0.00,29.0,28.2,00.0,37.9,30.8,11.2,0000.0,0010.16,0003.09,0002.15
2021-10-11 15:52:00,,0821.1,4.98,0.00,29.0,28.2,00.0,37.9,30.9,11.0,0000.0,0010.45,0003.09,0002.18
2021-10-11 15:53:00,,0821.1,5.00,0.00,29.0,28.2,00.0,38.0,30.9,11.2,0000.0,0010.86,0003.03,0002.20
2021-10-11 15:54:00,,0821.1,5.01,0.00,29.0,28.2,00.0,38.0,30.9,11.4,0000.0,0011.07,0003.09,0002.22
2021-10-11 15:55:00,,0821.1,4.99,0.00,29.0,28.2,00.0,38.0,30.9,11.6,0000.0,0011.43,0003.13,0002.25
2021-10-11 15:56:00,,0821.1,5.00,0.00,29.0,28.3,00.0,38.0,30.9,11.7,0000.0,0012.33,0003.16,0002.28
2021-10-11 15:57:00,,0821.1,5.00,0.00,29.1,28.3,00.0,38.0,30.9,11.8,0000.0,0012.58,0003.22,0002.31
2021-10-11 15:58:00,,0821.0,5.01,0.00,29.1,28.3,00.0,38.0,30.9,11.6,0000.0,0012.50,0003.26,0002.35
2021-10-11 15:59:00,,0821.0,5.00,0.00,29.1,28.3,00.0,38.1,30.9,11.5,0000.0,0011.40,0003.29,0002.38
